Hourly Data Report for May 14, 2021

TORONTO CITY
ONTARIO
Current Station Operator: ECCC - MSC

43°40'00.000" N
79°24'00.000" W
112.50 m
6158355
71508
XTO

Download Data

Hourly Data (May 2021)
Hourly Data Report for May 14, 2021
TIME
LST
Temp Definition
°C
Dew Point Definition
°C
Rel Hum Definition
%
Precip. Amount Definition
mm

Wind Dir Definition
10's deg

Wind Spd Definition
km/h
Visibility Definition
km
Stn Press Definition
kPa
Hmdx Definition


Wind Chill Definition


Weather Definition


00:00 12.9 -0.2 40 0.0       101.10     LegendNANA
01:00 11.4 0.2 46 0.0       101.11     LegendNANA
02:00 10.2 1.2 54 0.0       101.09     LegendNANA
03:00 9.2 1.2 57 0.0       101.10     LegendNANA
04:00 9.1 0.9 57 0.0       101.10     LegendNANA
05:00 8.7 0.3 56 0.0       101.12     LegendNANA
06:00 9.3 0.1 53 0.0       101.17     LegendNANA
07:00 12.5 -0.2 42 0.0       101.22     LegendNANA
08:00 16.4 -2.2 28 0.0       101.25     LegendNANA
09:00 18.3 0.0 29 0.0       101.24     LegendNANA
10:00 18.7 -0.3 28 0.0       101.22     LegendNANA
11:00 18.2 -2.3 25 0.0       101.21     LegendNANA
12:00 18.6 -1.8 25 0.0       101.13     LegendNANA
13:00 19.8 -2.8 22 0.0       101.06     LegendNANA
14:00 20.0 -2.8 21 0.0       101.01     LegendNANA
15:00 21.0 -1.4 22 0.0       100.95     LegendNANA
16:00 20.5 0.3 26 0.0       100.89     LegendNANA
17:00 18.9 0.6 29 0.0       100.87     LegendNANA
18:00 17.4 1.2 34 0.0       100.85     LegendNANA
19:00 16.5 0.3 33 0.0       100.86     LegendNANA
20:00 15.1 1.6 40 0.0       100.86     LegendNANA
21:00 14.6 2.3 44 0.0       100.91     LegendNANA
22:00 14.8 0.6 38 0.0       100.92     LegendNANA
23:00 13.9 0.4 39 0.0       100.93     LegendNANA

Notes on Data Quality.

Legend

  • E = Estimated
  • M = Missing
  • NA = Not Available*
  • [empty] = Indicates an unobserved value
Date modified: